M I D A S
Marine Information and Data Acquisition System
Tripno 640 of the Zeeleeuw from 2004-02-02 07:23:31 to 2004-02-02 13:50:01
Back to CruiseResearch ActivitiesStationsMapUnderway DataData graphs

EquipmentUnitsComments
TimeDGPSUTC
LatitudeDGPSDM.mWGS84
LongitudeDGPSDM.mWGS84
SpeedMeteo Stationm/sRelative wind speed
DirectionMeteo StationdegRelative wind direction
TemperatureMeteo Stationdeg CelciusAir temperature
PressureMeteo StationPaAtmospheric pressure
HumidityMeteo Station%Relative humidity
Missing or incorrect values are displayed as -999
Metereological data collected by the RV Zeeleeuw from 2004-02-02 07:23:31 to 2004-02-02 13:50:01
Time Latitude Longitude Speed Direction Temperature Pressure Humidity
2004-02-02 07:24 51°13.607 2°56.069 4.8 102 10.8 101570 95
2004-02-02 07:25 51°13.633 2°55.979 4.3 147 10.8 101570 95
2004-02-02 07:26 51°13.661 2°55.874 6 150 10.8 101570 95
2004-02-02 07:27 51°13.682 2°55.77 3.4 126 10.8 101570 95
2004-02-02 07:28 51°13.723 2°55.778 3 262 10.8 101570 95
2004-02-02 07:29 51°13.801 2°55.675 3.5 248 10.8 101580 95
2004-02-02 07:30 51°13.907 2°55.575 3.1 335 10.8 101580 95
2004-02-02 07:31 51°14.03 2°55.488 4.1 330 10.8 101570 95
2004-02-02 07:32 51°14.151 2°55.399 4.4 288 10.8 101560 95
2004-02-02 07:33 51°14.242 2°55.303 5.8 300 10.8 101560 95
2004-02-02 07:34 51°14.317 2°55.171 8.1 304 10.8 101550 95
2004-02-02 07:35 51°14.395 2°55.01 7.3 289 10.8 101550 95
2004-02-02 07:36 51°14.501 2°54.93 8.3 262 10.7 101550 95
2004-02-02 07:37 51°14.617 2°54.887 8.3 278 10.6 101550 95
2004-02-02 07:38 51°14.719 2°54.797 7.9 285 10.6 101540 95
2004-02-02 07:39 51°14.878 2°54.648 9.4 299 10.5 101530 95
2004-02-02 07:40 51°15.071 2°54.459 9.8 298 10.4 101530 95
2004-02-02 07:41 51°15.266 2°54.265 10.4 302 10.4 101520 95
2004-02-02 07:42 51°15.463 2°54.074 10.2 303 10.3 101520 95
2004-02-02 07:43 51°15.66 2°53.884 10.9 299 10.2 101530 95
2004-02-02 07:44 51°15.859 2°53.698 10.6 308 10.1 101530 95
2004-02-02 07:45 51°16.056 2°53.51 10.6 230 10 101530 95
2004-02-02 07:46 51°16.253 2°53.325 11.8 308 9.9 101530 95
2004-02-02 07:47 51°16.448 2°53.14 10.3 315 9.9 101540 95
2004-02-02 07:48 51°16.641 2°52.957 10.9 307 9.8 101540 95
2004-02-02 07:49 51°16.836 2°52.778 11.7 308 9.8 101520 95
2004-02-02 07:50 51°17.036 2°52.602 11.6 307 9.8 101530 95
2004-02-02 07:51 51°17.245 2°52.457 10 303 9.7 101530 95
2004-02-02 07:52 51°17.471 2°52.37 9.3 296 9.7 101530 95
2004-02-02 07:53 51°17.702 2°52.324 10.5 295 9.6 101540 95
2004-02-02 07:54 51°17.934 2°52.282 9.9 301 9.6 101550 95
2004-02-02 07:55 51°18.166 2°52.307 5.7 274 9.6 101540 95
2004-02-02 07:56 51°18.358 2°52.533 1.6 239 9.6 101560 95
2004-02-02 07:57 51°18.516 2°52.832 2.5 222 9.6 101550 95
2004-02-02 07:58 51°18.673 2°53.137 1.2 249 9.6 101560 95
2004-02-02 07:59 51°18.825 2°53.445 1.4 220 9.7 101560 95
2004-02-02 08:00 51°18.976 2°53.759 1 269 9.8 101550 95
2004-02-02 08:01 51°19.129 2°54.071 1 253 9.8 101560 95
2004-02-02 08:02 51°19.273 2°54.389 1.3 239 9.8 101550 95
2004-02-02 08:03 51°19.419 2°54.715 0.5 22 9.8 101560 95
2004-02-02 08:04 51°19.56 2°55.032 0.2 2 9.8 101560 95
2004-02-02 08:05 51°19.705 2°55.352 1 7 9.7 101560 95
2004-02-02 08:06 51°19.844 2°55.677 1.2 347 9.6 101560 95
2004-02-02 08:07 51°19.987 2°55.999 0.9 13 9.5 101570 95
2004-02-02 08:08 51°20.128 2°56.325 0.6 32 9.4 101550 95
2004-02-02 08:09 51°20.271 2°56.655 1.3 52 9.4 101560 95
2004-02-02 08:10 51°20.407 2°56.989 1 62 9.4 101550 95
2004-02-02 08:11 51°20.526 2°57.339 1.6 95 9.4 101550 95
2004-02-02 08:12 51°20.638 2°57.692 1.6 111 9.4 101550 95
2004-02-02 08:13 51°20.752 2°58.046 1 113 9.3 101550 95
2004-02-02 08:14 51°20.931 2°58.311 4.6 271 9.3 101550 95
2004-02-02 08:15 51°21.143 2°58.484 3.2 270 9.4 101550 95
2004-02-02 08:16 51°21.353 2°58.68 1.3 256 9.4 101550 95
2004-02-02 08:17 51°21.515 2°58.978 4 116 9.5 101540 95
2004-02-02 08:18 51°21.621 2°59.335 1.5 104 9.5 101540 95
2004-02-02 08:19 51°21.716 2°59.701 4.7 124 9.4 101540 95
2004-02-02 08:20 51°21.803 3°0.074 4.2 123 9.5 101540 95
2004-02-02 08:21 51°21.859 3°0.469 5.2 116 9.5 101530 95
2004-02-02 08:22 51°21.914 3°0.867 6.2 104 9.5 101540 95
2004-02-02 08:23 51°21.979 3°1.26 3.2 137 9.5 101540 95
2004-02-02 08:24 51°22.116 3°1.593 2.7 200 9.5 101550 95
2004-02-02 08:25 51°22.291 3°1.871 2.3 225 9.6 101540 95
2004-02-02 08:26 51°22.476 3°2.135 3.2 196 9.5 101500 95
2004-02-02 08:27 51°22.656 3°2.408 3.3 214 9.4 101490 95
2004-02-02 08:28 51°22.835 3°2.677 2.6 236 9.5 101490 95
2004-02-02 08:29 51°23.017 3°2.948 4.2 238 9.5 101490 95
2004-02-02 08:30 51°23.199 3°3.222 4.8 221 9.5 101490 95
2004-02-02 08:31 51°23.376 3°3.496 3.2 239 9.5 101490 95
2004-02-02 08:32 51°23.554 3°3.779 4.8 229 9.5 101490 95
2004-02-02 08:33 51°23.734 3°4.054 4.7 243 9.6 101500 95
2004-02-02 08:34 51°23.928 3°4.299 4.5 263 9.6 101490 95
2004-02-02 08:35 51°24.137 3°4.514 4.7 256 9.5 101480 95
2004-02-02 08:36 51°24.345 3°4.729 4.4 253 9.5 101480 95
2004-02-02 08:37 51°24.545 3°4.951 6.5 260 9.5 101490 95
2004-02-02 08:38 51°24.751 3°5.168 5.4 247 9.5 101470 95
2004-02-02 08:39 51°24.955 3°5.391 4.5 257 9.4 101470 95
2004-02-02 08:40 51°25.163 3°5.606 6.4 252 9.3 101480 95
2004-02-02 08:41 51°25.376 3°5.811 4.6 249 9.4 101460 95
2004-02-02 08:42 51°25.576 3°6.052 4.7 223 9.4 101480 95
2004-02-02 08:43 51°25.731 3°6.375 4.1 227 9.4 101480 95
2004-02-02 08:44 51°25.883 3°6.692 5.8 218 9.4 101480 95
2004-02-02 08:45 51°26.026 3°7.017 4.9 171 9.4 101480 95
2004-02-02 08:46 51°26.16 3°7.355 4.6 201 9.6 101490 95
2004-02-02 08:47 51°26.298 3°7.693 3.7 190 9.7 101480 95
2004-02-02 08:48 51°26.418 3°8.007 4.8 206 9.7 101510 95
2004-02-02 08:49 51°26.513 3°8.182 12.5 240 9.5 101520 95
2004-02-02 08:50 51°26.569 3°8.251 7.9 254 9.5 101490 95
2004-02-02 08:51 51°26.588 3°8.303 12.7 243 9.4 101490 95
2004-02-02 08:52 51°26.6 3°8.353 13.3 258 9.3 101480 95
2004-02-02 08:53 51°26.634 3°8.388 18.2 266 9.4 101460 95
2004-02-02 08:54 51°26.685 3°8.423 10.2 256 9.4 101460 95
2004-02-02 08:55 51°26.73 3°8.469 13 255 9.4 101520 95
2004-02-02 08:56 51°26.772 3°8.516 12.6 258 9.4 101460 95
2004-02-02 08:57 51°26.816 3°8.563 10 255 9.5 101450 95
2004-02-02 08:58 51°26.855 3°8.614 10.8 247 9.4 101460 95
2004-02-02 08:59 51°26.894 3°8.674 15.1 233 9.4 101470 95
2004-02-02 09:00 51°26.933 3°8.742 14.1 235 9.5 101460 95
2004-02-02 09:01 51°26.972 3°8.811 17.4 230 9.5 101470 95
2004-02-02 09:02 51°27.006 3°8.885 16.6 212 9.5 101470 95
2004-02-02 09:03 51°27.035 3°8.97 9.3 190 9.5 101490 95
2004-02-02 09:04 51°27.054 3°9.072 12.9 154 9.6 101500 95
2004-02-02 09:05 51°27.066 3°9.168 13.8 153 9.5 101480 95
2004-02-02 09:06 51°27.078 3°9.26 16.2 152 9.5 101480 95
2004-02-02 09:07 51°27.085 3°9.351 15.7 149 9.5 101460 95
2004-02-02 09:08 51°27.092 3°9.436 17.1 137 9.4 101460 95
2004-02-02 09:09 51°27.097 3°9.529 16.5 148 9.5 101450 95
2004-02-02 09:10 51°27.101 3°9.62 17.6 140 9.5 101460 95
2004-02-02 09:11 51°27.105 3°9.712 13.8 146 9.5 101470 95
2004-02-02 09:12 51°27.111 3°9.804 15.9 156 9.4 101470 95
2004-02-02 09:13 51°27.12 3°9.896 14.4 155 9.5 101470 95
2004-02-02 09:14 51°27.129 3°9.989 14.8 158 9.4 101480 95
2004-02-02 09:15 51°27.133 3°10.083 18.3 141 9.5 101470 95
2004-02-02 09:16 51°27.133 3°10.174 13.9 121 9.4 101460 95
2004-02-02 09:17 51°27.125 3°10.26 18.1 126 9.4 101450 95
2004-02-02 09:18 51°27.112 3°10.345 16.2 120 9.4 101450 95
2004-02-02 09:19 51°27.093 3°10.427 13.6 110 9.6 101460 95
2004-02-02 09:20 51°27.071 3°10.507 15.3 107 9.4 101440 95
2004-02-02 09:21 51°27.048 3°10.586 18.9 98 9.4 101450 95
2004-02-02 09:22 51°27.025 3°10.664 19.5 89 9.4 101460 95
2004-02-02 09:23 51°27.001 3°10.74 18.1 97 9.4 101450 95
2004-02-02 09:24 51°26.974 3°10.821 17.6 102 9.4 101470 95
2004-02-02 09:25 51°26.953 3°10.896 15.4 114 9.4 101460 95
2004-02-02 09:26 51°26.926 3°10.972 16.3 101 9.4 101450 95
2004-02-02 09:27 51°26.903 3°11.046 15.1 96 9.4 101460 95
2004-02-02 09:28 51°26.89 3°11.108 18 93 9.4 101460 95
2004-02-02 09:29 51°26.885 3°11.165 16.6 96 9.5 101460 95
2004-02-02 09:30 51°26.884 3°11.222 16.4 85 9.5 101460 95
2004-02-02 09:31 51°26.859 3°11.277 13.9 71 9.5 101450 95
2004-02-02 09:32 51°26.828 3°11.311 17.9 39 9.5 101450 95
2004-02-02 09:33 51°26.807 3°11.325 16.2 22 9.6 101460 95
2004-02-02 09:34 51°26.8 3°11.3 17.4 340 9.6 101480 95
2004-02-02 09:35 51°26.821 3°11.261 16.4 321 9.6 101450 95
2004-02-02 09:36 51°26.852 3°11.224 16.2 34 9.6 101450 95
2004-02-02 09:37 51°26.888 3°11.207 17.3 305 9.6 101450 95
2004-02-02 09:38 51°26.928 3°11.202 19.4 299 9.6 101460 95
2004-02-02 09:39 51°26.969 3°11.208 17.9 296 9.5 101460 95
2004-02-02 09:40 51°27.013 3°11.22 16 283 9.5 101470 95
2004-02-02 09:41 51°27.061 3°11.221 16.6 279 9.5 101450 95
2004-02-02 09:42 51°27.111 3°11.225 17.6 282 9.5 101460 95
2004-02-02 09:43 51°27.161 3°11.234 19.7 277 9.5 101470 95
2004-02-02 09:44 51°27.209 3°11.255 18.1 280 9.5 101480 95
2004-02-02 09:45 51°27.252 3°11.276 18.2 277 9.5 101470 95
2004-02-02 09:46 51°27.295 3°11.296 19.7 279 9.6 101460 95
2004-02-02 09:47 51°27.337 3°11.313 20.6 277 9.6 101470 95
2004-02-02 09:48 51°27.383 3°11.336 19.5 276 9.7 101460 95
2004-02-02 09:49 51°27.424 3°11.353 16.2 285 9.6 101470 95
2004-02-02 09:50 51°27.465 3°11.373 18.2 283 9.6 101460 95
2004-02-02 09:51 51°27.502 3°11.393 18.2 286 9.5 101470 95
2004-02-02 09:52 51°27.544 3°11.412 18.3 277 9.5 101470 95
2004-02-02 09:53 51°27.586 3°11.437 21 271 9.6 101470 95
2004-02-02 09:54 51°27.629 3°11.46 17.3 277 9.6 101460 95
2004-02-02 09:55 51°27.672 3°11.479 19.7 278 9.6 101450 95
2004-02-02 09:56 51°27.716 3°11.498 17.8 277 9.6 101470 95
2004-02-02 09:57 51°27.757 3°11.521 15.2 284 9.5 101470 95
2004-02-02 09:58 51°27.798 3°11.537 17.6 292 9.5 101490 95
2004-02-02 09:59 51°27.838 3°11.558 21.8 266 9.6 101470 95
2004-02-02 10:00 51°27.877 3°11.582 17.2 275 9.6 101460 95
2004-02-02 10:01 51°27.923 3°11.615 19.2 261 9.6 101490 95
2004-02-02 10:02 51°27.96 3°11.652 20.2 268 9.7 101470 95
2004-02-02 10:03 51°27.988 3°11.694 18.3 274 9.8 101480 95
2004-02-02 10:04 51°28.022 3°11.732 20.1 289 9.7 101460 95
2004-02-02 10:05 51°28.068 3°11.691 19.7 348 9.7 101430 95
2004-02-02 10:06 51°28.028 3°11.646 18.4 24 9.7 101490 95
2004-02-02 10:07 51°27.93 3°11.491 20.8 10 9.7 101440 95
2004-02-02 10:08 51°27.831 3°11.271 26.7 12 9.7 101460 95
2004-02-02 10:09 51°27.728 3°11.043 24.9 15 9.5 101460 95
2004-02-02 10:10 51°27.629 3°10.819 25.3 13 9.4 101480 95
2004-02-02 10:11 51°27.528 3°10.593 23.7 10 9.4 101490 95
2004-02-02 10:12 51°27.46 3°10.329 22.8 6 9.4 101500 95
2004-02-02 10:13 51°27.395 3°10.042 24 2 9.4 101470 95
2004-02-02 10:14 51°27.328 3°9.76 26.7 3 9.4 101460 95
2004-02-02 10:15 51°27.258 3°9.48 24 6 9.5 101470 95
2004-02-02 10:16 51°27.102 3°9.359 22.5 40 9.5 101410 95
2004-02-02 10:17 51°26.923 3°9.256 21.2 37 9.5 101430 95
2004-02-02 10:18 51°26.758 3°9.108 24.4 24 9.5 101410 95
2004-02-02 10:19 51°26.614 3°8.94 24.5 26 9.4 101430 95
2004-02-02 10:20 51°26.489 3°8.726 23.4 12 9.4 101450 95
2004-02-02 10:21 51°26.389 3°8.504 26.1 15 9.4 101470 95
2004-02-02 10:22 51°26.285 3°8.271 24.4 8 9.5 101470 95
2004-02-02 10:23 51°26.172 3°8.036 20.4 19 9.5 101460 95
2004-02-02 10:24 51°26.035 3°7.825 24.5 18 9.5 101470 95
2004-02-02 10:25 51°25.904 3°7.627 20.9 17 9.5 101480 95
2004-02-02 10:26 51°25.774 3°7.432 21.7 19 9.4 101460 95
2004-02-02 10:27 51°25.641 3°7.226 24.5 20 9.4 101500 95
2004-02-02 10:28 51°25.509 3°7.006 22 14 9.5 101500 95
2004-02-02 10:29 51°25.378 3°6.786 23.4 12 9.4 101480 95
2004-02-02 10:30 51°25.246 3°6.571 26.1 12 9.4 101510 95
2004-02-02 10:31 51°25.109 3°6.365 20.8 23 9.5 101490 95
2004-02-02 10:32 51°24.969 3°6.16 22.6 20 9.5 101500 95
2004-02-02 10:33 51°24.828 3°5.953 24.4 19 9.6 101510 95
2004-02-02 10:34 51°24.687 3°5.747 26.2 17 9.5 101530 95
2004-02-02 10:35 51°24.549 3°5.549 22.7 16 9.5 101510 95
2004-02-02 10:36 51°24.409 3°5.345 24.2 19 9.5 101510 95
2004-02-02 10:37 51°24.267 3°5.137 26.2 20 9.6 101510 95
2004-02-02 10:38 51°24.118 3°4.919 25.9 20 9.6 101500 95
2004-02-02 10:39 51°23.982 3°4.716 25.5 17 9.6 101490 95
2004-02-02 10:40 51°23.846 3°4.517 23.7 17 9.5 101530 95
2004-02-02 10:41 51°23.71 3°4.316 26.8 18 9.5 101520 95
2004-02-02 10:42 51°23.57 3°4.106 24.8 21 9.5 101500 95
2004-02-02 10:43 51°23.431 3°3.894 26.1 19 9.5 101510 95
2004-02-02 10:44 51°23.301 3°3.703 28.5 19 9.6 101540 95
2004-02-02 10:45 51°23.163 3°3.498 26.5 21 9.5 101560 95
2004-02-02 10:46 51°23.035 3°3.313 21.9 13 9.5 101540 95
2004-02-02 10:47 51°22.901 3°3.12 22.8 17 9.5 101530 95
2004-02-02 10:48 51°22.769 3°2.919 23.9 22 9.5 101540 95
2004-02-02 10:49 51°22.632 3°2.718 25.9 20 9.5 101520 95
2004-02-02 10:50 51°22.493 3°2.525 22.7 14 9.4 101520 95
2004-02-02 10:51 51°22.357 3°2.335 23.3 21 9.5 101540 95
2004-02-02 10:52 51°22.24 3°2.164 25.4 12 9.4 101550 95
2004-02-02 10:53 51°22.117 3°1.945 25.9 15 9.5 101510 95
2004-02-02 10:54 51°21.996 3°1.741 25.8 12 9.5 101550 95
2004-02-02 10:55 51°21.873 3°1.535 26.6 9 9.5 101550 95
2004-02-02 10:56 51°21.747 3°1.32 26.1 13 9.4 101590 95
2004-02-02 10:57 51°21.618 3°1.097 21.2 12 9.6 101570 95
2004-02-02 10:58 51°21.498 3°0.892 25.7 14 9.6 101560 95
2004-02-02 10:59 51°21.377 3°0.691 25.4 11 9.4 101580 95
2004-02-02 11:00 51°21.253 3°0.493 25.2 22 9.4 101580 95
2004-02-02 11:01 51°21.134 3°0.339 21.4 16 9.5 101590 95
2004-02-02 11:02 51°21.073 3°0.198 21.9 8 9.5 101620 95
2004-02-02 11:03 51°21.015 3°0.064 20.2 2 9.5 101620 95
2004-02-02 11:04 51°21.003 3°0.053 18.7 21 9.6 101660 95
2004-02-02 11:05 51°21.015 3°0.099 17.9 43 9.6 101650 95
2004-02-02 11:06 51°21.02 3°0.151 18.1 51 9.6 101630 95
2004-02-02 11:07 51°21.001 3°0.179 16 24 9.6 101630 95
2004-02-02 11:08 51°20.985 3°0.168 17.6 351 9.6 101680 95
2004-02-02 11:09 51°21.017 3°0.135 17.9 287 9.6 101660 95
2004-02-02 11:10 51°21.076 3°0.128 19.2 273 9.6 101640 95
2004-02-02 11:11 51°21.13 3°0.145 16.8 259 9.6 101660 95
2004-02-02 11:12 51°21.187 3°0.181 11.2 250 9.6 101750 95
2004-02-02 11:13 51°21.237 3°0.224 15 239 9.6 101680 95
2004-02-02 11:14 51°21.285 3°0.273 11.3 247 9.6 101670 95
2004-02-02 11:15 51°21.328 3°0.326 16.6 233 9.6 101670 95
2004-02-02 11:16 51°21.373 3°0.384 17.3 235 9.6 101660 95
2004-02-02 11:17 51°21.42 3°0.444 15.6 229 9.7 101680 95
2004-02-02 11:18 51°21.46 3°0.515 14.2 207 9.6 101700 95
2004-02-02 11:19 51°21.498 3°0.595 11.8 180 9.7 101700 95
2004-02-02 11:20 51°21.521 3°0.686 17.9 147 9.7 101680 95
2004-02-02 11:21 51°21.535 3°0.773 15.6 226 9.7 101660 95
2004-02-02 11:22 51°21.546 3°0.864 16.9 145 9.7 101660 95
2004-02-02 11:23 51°21.56 3°0.958 18 144 9.7 101660 95
2004-02-02 11:24 51°21.573 3°1.047 15.4 225 9.7 101660 95
2004-02-02 11:25 51°21.584 3°1.132 19 137 9.7 101640 95
2004-02-02 11:26 51°21.599 3°1.221 17.6 144 9.8 101650 95
2004-02-02 11:27 51°21.61 3°1.314 17.9 44 9.8 101640 95
2004-02-02 11:28 51°21.621 3°1.402 20.3 134 9.8 101630 95
2004-02-02 11:29 51°21.631 3°1.491 16.5 136 9.8 101620 95
2004-02-02 11:30 51°21.64 3°1.583 16.5 139 9.8 101640 95
2004-02-02 11:31 51°21.648 3°1.673 18.4 125 9.9 101610 95
2004-02-02 11:32 51°21.654 3°1.758 15.8 125 9.9 101610 94
2004-02-02 11:33 51°21.66 3°1.845 15.9 125 9.9 101630 94
2004-02-02 11:34 51°21.665 3°1.933 16.1 127 9.9 101640 94
2004-02-02 11:35 51°21.671 3°2.02 17.1 128 10 101630 94
2004-02-02 11:36 51°21.674 3°2.107 19.4 121 9.9 101650 94
2004-02-02 11:37 51°21.67 3°2.189 18.2 101 9.9 101630 94
2004-02-02 11:38 51°21.667 3°2.257 19.9 98 9.9 101660 94
2004-02-02 11:39 51°21.675 3°2.316 20 94 10 101640 94
2004-02-02 11:40 51°21.687 3°2.376 21.1 95 10 101650 93
2004-02-02 11:41 51°21.702 3°2.434 16.8 113 10 101660 93
2004-02-02 11:42 51°21.716 3°2.498 17.4 104 10 101650 93
2004-02-02 11:43 51°21.726 3°2.555 21.6 102 10 101640 93
2004-02-02 11:44 51°21.734 3°2.618 17.1 91 10 101670 93
2004-02-02 11:45 51°21.714 3°2.666 17.5 40 10 101650 93
2004-02-02 11:46 51°21.696 3°2.679 19.9 7 10 101660 93
2004-02-02 11:47 51°21.712 3°2.697 18.6 302 10.1 101660 93
2004-02-02 11:48 51°21.736 3°2.749 18.4 253 10.1 101660 92
2004-02-02 11:49 51°21.757 3°2.803 17.5 260 10 101660 92
2004-02-02 11:50 51°21.779 3°2.856 16.6 259 10 101660 92
2004-02-02 11:51 51°21.804 3°2.904 19.9 268 10 101670 92
2004-02-02 11:52 51°21.828 3°2.951 20.2 277 10.1 101640 92
2004-02-02 11:53 51°21.85 3°3.002 22.9 270 10.1 101660 92
2004-02-02 11:54 51°21.872 3°3.056 22.7 265 10.1 101660 92
2004-02-02 11:55 51°21.893 3°3.11 18.6 259 10 101670 91
2004-02-02 11:56 51°21.915 3°3.163 21.1 262 10.1 101660 91
2004-02-02 11:57 51°21.937 3°3.213 16.4 274 10.1 101670 91
2004-02-02 11:58 51°21.961 3°3.26 25.4 271 10 101680 91
2004-02-02 11:59 51°21.991 3°3.307 17.3 278 10.1 101720 91
2004-02-02 12:00 51°22.03 3°3.311 22.9 318 10.1 101650 91
2004-02-02 12:01 51°22.057 3°3.301 19.7 343 10.1 101670 91
2004-02-02 12:02 51°22.057 3°3.303 19.3 36 10.2 101690 90
2004-02-02 12:03 51°22.039 3°3.284 20.1 359 10.2 101700 90
2004-02-02 12:04 51°22.02 3°3.23 19.7 18 10.2 101700 90
2004-02-02 12:05 51°22.001 3°3.189 19.4 5 10.2 101710 90
2004-02-02 12:06 51°21.984 3°3.136 22.8 357 10.3 101640 90
2004-02-02 12:07 51°21.956 3°2.952 22.3 353 10.3 101670 90
2004-02-02 12:08 51°21.929 3°2.758 20.2 352 10.2 101670 90
2004-02-02 12:09 51°21.907 3°2.56 25 351 10 101660 91
2004-02-02 12:10 51°21.895 3°2.352 20.5 351 10 101650 91
2004-02-02 12:11 51°21.882 3°2.119 24.7 346 9.8 101670 92
2004-02-02 12:12 51°21.851 3°1.886 22.1 359 9.7 101680 92
2004-02-02 12:13 51°21.768 3°1.65 23.9 6 9.7 101690 93
2004-02-02 12:14 51°21.686 3°1.445 26.1 8 9.6 101680 93
2004-02-02 12:15 51°21.589 3°1.226 22.8 11 9.6 101680 93
2004-02-02 12:16 51°21.494 3°1.012 24.6 14 9.6 101680 93
2004-02-02 12:17 51°21.397 3°0.78 24.2 6 9.5 101710 94
2004-02-02 12:18 51°21.299 3°0.575 22.5 16 9.4 101680 94
2004-02-02 12:19 51°21.216 3°0.382 25.7 15 9.4 101720 94
2004-02-02 12:20 51°21.116 3°0.152 19.8 15 9.5 101700 94
2004-02-02 12:21 51°21.079 3°0.09 18.1 18 9.4 101740 94
2004-02-02 12:22 51°21.079 3°0.112 14.6 38 9.5 101730 94
2004-02-02 12:23 51°21.095 3°0.16 18.1 91 9.4 101720 94
2004-02-02 12:24 51°21.094 3°0.213 14.6 86 9.4 101730 94
2004-02-02 12:25 51°21.068 3°0.248 19.8 54 9.5 101710 94
2004-02-02 12:26 51°21.029 3°0.254 20.3 37 9.5 101720 95
2004-02-02 12:27 51°20.997 3°0.255 16.5 34 9.6 101720 95
2004-02-02 12:28 51°20.968 3°0.251 17.4 29 9.6 101740 94
2004-02-02 12:29 51°20.942 3°0.23 23.2 18 9.7 101730 94
2004-02-02 12:30 51°20.908 3°0.205 17.5 43 9.7 101730 94
2004-02-02 12:31 51°20.877 3°0.187 20 23 9.7 101730 94
2004-02-02 12:32 51°20.841 3°0.165 22.5 33 9.8 101730 94
2004-02-02 12:33 51°20.815 3°0.125 17.5 16 9.8 101750 94
2004-02-02 12:34 51°20.789 3°0.111 19.1 24 9.8 101730 94
2004-02-02 12:35 51°20.761 3°0.098 19.8 25 9.8 101750 93
2004-02-02 12:36 51°20.727 3°0.09 17.7 29 9.9 101720 93
2004-02-02 12:37 51°20.695 3°0.073 17.8 27 9.9 101740 93
2004-02-02 12:38 51°20.662 3°0.062 16.8 26 9.9 101730 93
2004-02-02 12:39 51°20.636 3°0.043 16 18 10 101750 92
2004-02-02 12:40 51°20.607 3°0.012 21.4 23 10 101760 92
2004-02-02 12:41 51°20.573 2°59.994 17.3 33 10 101760 92
2004-02-02 12:42 51°20.534 2°59.977 19.2 27 10 101750 91
2004-02-02 12:43 51°20.503 2°59.939 20.7 17 10.1 101750 91
2004-02-02 12:44 51°20.473 2°59.906 19.6 25 10.1 101770 91
2004-02-02 12:45 51°20.442 2°59.864 18 16 10.1 101770 91
2004-02-02 12:46 51°20.418 2°59.831 17.7 12 10.1 101770 91
2004-02-02 12:47 51°20.403 2°59.776 19.8   10.1 101780 90
2004-02-02 12:48 51°20.385 2°59.723 18.5 11 10.1 101800 90
2004-02-02 12:49 51°20.36 2°59.663 19.1 18 10.1 101790 90
2004-02-02 12:50 51°20.333 2°59.622 18 17 10.1 101770 90
2004-02-02 12:51 51°20.319 2°59.576 19.2 5 10.2 101790 90
2004-02-02 12:52 51°20.303 2°59.519 15.1 12 10.3 101790 90
2004-02-02 12:53 51°20.283 2°59.463 20.2 9 10.2 101810 89
2004-02-02 12:54 51°20.268 2°59.402 18.9 348 10.2 101800 89
2004-02-02 12:55 51°20.284 2°59.39 16.6 230 10.2 101790 89
2004-02-02 12:56 51°20.307 2°59.422 16.8 267 10.1 101750 89
2004-02-02 12:57 51°20.329 2°59.458 9.9 255 10.1 101780 89
2004-02-02 12:58 51°20.35 2°59.496 17.9 266 10.1 101790 89
2004-02-02 12:59 51°20.367 2°59.529 11.3 255 10.1 101780 89
2004-02-02 13:00 51°20.388 2°59.564 17.3 275 10.1 101780 89
2004-02-02 13:01 51°20.41 2°59.598 19.3 270 10.1 101790 89
2004-02-02 13:02 51°20.46 2°59.57 21.6 334 10.1 101780 88
2004-02-02 13:03 51°20.452 2°59.463 23.2 359 10.2 101780 88
2004-02-02 13:04 51°20.376 2°59.225 24.6 5 10.3 101770 88
2004-02-02 13:05 51°20.287 2°58.945 23.1 2 9.9 101770 89
2004-02-02 13:06 51°20.205 2°58.676 19.1 3 9.6 101790 91
2004-02-02 13:07 51°20.119 2°58.391 24.2 8 9.5 101770 92
2004-02-02 13:08 51°20.031 2°58.108 24.8 4 9.4 101790 93
2004-02-02 13:09 51°19.953 2°57.846 22.7 359 9.4 101810 93
2004-02-02 13:10 51°19.867 2°57.568 22.8 5 9.4 101790 93
2004-02-02 13:11 51°19.78 2°57.284 22.1 4 9.3 101760 94
2004-02-02 13:12 51°19.697 2°57.016 20.9 3 9.4 101790 94
2004-02-02 13:13 51°19.611 2°56.725 24 6 9.4 101780 94
2004-02-02 13:14 51°19.532 2°56.473 21.1 8 9.3 101790 94
2004-02-02 13:15 51°19.45 2°56.196 22.3 5 9.4 101790 94
2004-02-02 13:16 51°19.368 2°55.916 22.7 4 9.4 101790 94
2004-02-02 13:17 51°19.283 2°55.625 25 5 9.4 101800 94
2004-02-02 13:18 51°19.197 2°55.343 21.6 4 9.4 101800 95
2004-02-02 13:19 51°19.116 2°55.062 22.1 4 9.3 101800 95
2004-02-02 13:20 51°19.029 2°54.772 20.5 6 9.3 101800 95
2004-02-02 13:21 51°18.94 2°54.482 23 4 9.3 101800 95
2004-02-02 13:22 51°18.846 2°54.192 24.2 9 9.4 101790 95
2004-02-02 13:23 51°18.758 2°53.926 17.7 9 9.3 101810 95
2004-02-02 13:24 51°18.671 2°53.662 23.1 9 9.3 101810 95
2004-02-02 13:25 51°18.567 2°53.396 22.1 16 9.3 101810 95
2004-02-02 13:26 51°18.444 2°53.153 21.7 15 9.3 101800 95
2004-02-02 13:27 51°18.301 2°52.919 24.8 19 9.3 101800 95
2004-02-02 13:28 51°18.147 2°52.717 21.9 25 9.3 101800 95
2004-02-02 13:29 51°17.985 2°52.537 20.7 28 9.3 101790 95
2004-02-02 13:30 51°17.806 2°52.383 22.3 35 9.4 101760 95
2004-02-02 13:31 51°17.606 2°52.303 24.3 52 9.4 101740 95
2004-02-02 13:32 51°17.399 2°52.303 19 60 9.5 101730 95
2004-02-02 13:33 51°17.189 2°52.35 18.1 55 9.5 101750 95
2004-02-02 13:34 51°16.976 2°52.418 18 62 9.5 101770 95
2004-02-02 13:35 51°16.769 2°52.512 19.8 60 9.6 101740 94
2004-02-02 13:36 51°16.562 2°52.618 17.6 70 9.6 101770 94
2004-02-02 13:37 51°16.358 2°52.728 18.1 69 9.6 101770 94
2004-02-02 13:38 51°16.153 2°52.852 14.2 76 9.7 101780 94
2004-02-02 13:39 51°15.952 2°52.989 13.1 73 9.7 101780 93
2004-02-02 13:40 51°15.75 2°53.15 16.9 70 9.7 101790 93
2004-02-02 13:41 51°15.594 2°53.279 17 83 9.8 101830 92
2004-02-02 13:42 51°15.472 2°53.388 11.3 80 9.8 101830 92
2004-02-02 13:43 51°15.289 2°53.546 17.9 82 9.8 101790 92
2004-02-02 13:44 51°15.112 2°53.76 19.9 92 9.9 101800 92
2004-02-02 13:45 51°14.938 2°53.99 17.1 83 10 101810 91
2004-02-02 13:46 51°14.769 2°54.227 17.2 83 10 101810 91
2004-02-02 13:47 51°14.616 2°54.491 18 87 10 101830 90
2004-02-02 13:48 51°14.487 2°54.785 14.3 93 10.1 101850 90
2004-02-02 13:49 51°14.372 2°55.059 15.2 98 10.1 101860 90